Location: Newark
(27.9675°N, 86.8869°E)
Time: 07:14:46
(UTC+00:00)

Courier 1B Rocket - Visible Passes

Search period start: 21 October 2019 00:00
Search period end: 31 October 2019 00:00
Orbit: 920 x 1202 km, 28.2° (Epoch: 20 October)

Date Brightness Start Highest point End Pass type
(mag) Time Alt. Az. Time Alt. Az. Time Alt. Az.
21 Oct 5.2 21:49:41 60° E 21:49:41 60° E 21:54:45 10° E visible
21 Oct 5.0 23:36:04 12° W 23:41:56 87° SSW 23:48:26 10° E visible
22 Oct 7.3 20:52:31 16° E 20:52:31 16° E 20:53:41 10° E visible
22 Oct 4.8 22:38:54 46° W 22:40:55 87° N 22:47:16 10° E visible
23 Oct 5.6 21:41:44 49° E 21:41:44 49° E 21:46:10 10° E visible
23 Oct 5.0 23:28:06 15° W 23:33:20 77° SSW 23:39:44 10° ESE visible
24 Oct 7.5 20:44:34 13° E 20:44:34 13° E 20:45:07 10° E visible
24 Oct 4.8 22:30:56 56° W 22:32:21 87° S 22:38:39 10° E visible
25 Oct 6.0 21:33:48 39° E 21:33:48 39° E 21:37:35 10° E visible
25 Oct 5.1 23:20:10 19° W 23:24:42 62° SSW 23:30:56 10° ESE visible
26 Oct 4.7 22:23:02 67° WSW 22:23:45 76° SSW 22:29:59 10° ESE visible
27 Oct 6.4 21:25:54 31° E 21:25:54 31° E 21:29:01 10° E visible
27 Oct 5.4 23:12:17 22° W 23:16:00 47° SSW 23:21:59 10° SE visible
28 Oct 5.0 22:15:11 61° SSW 22:15:11 61° SSW 22:21:14 10° ESE visible
29 Oct 6.8 21:18:07 24° ESE 21:18:07 24° ESE 21:20:23 10° ESE visible
29 Oct 5.8 23:04:29 24° WSW 23:07:15 34° SSW 23:12:47 10° SE visible
30 Oct 7.5 14:27:03 10° SSW 14:27:39 12° SSW 14:27:39 12° SSW visible
30 Oct 5.6 22:07:27 42° S 22:07:27 42° S 22:12:18 10° SE visible
